Location: Tucson
(32.2217°N, 110.9265°W)
Time: 16:34:08
(UTC-07:00)

ISS - Visible Passes

Search period start: 19 January 2019 00:00
Search period end: 29 January 2019 00:00
Orbit: 404 x 410 km, 51.6° (Epoch: 20 January)

Date Brightness Start Highest point End Pass type
(mag) Time Alt. Az. Time Alt. Az. Time Alt. Az.
19 Jan -1.8 18:31:32 10° SSE 18:33:26 15° SE 18:34:36 13° ESE visible
19 Jan -0.6 20:06:40 10° WSW 20:07:21 15° WSW 20:07:21 15° WSW visible
20 Jan -3.9 19:15:04 10° SW 19:18:20 78° NW 19:18:37 70° N visible
21 Jan -3.3 18:23:53 10° SSW 18:27:01 44° SE 18:29:47 13° ENE visible
21 Jan -0.7 20:01:40 10° WNW 20:02:31 13° WNW 20:02:31 13° WNW visible
22 Jan -2.0 19:09:21 10° W 19:12:11 26° NW 19:13:36 19° N visible
23 Jan -3.2 18:17:31 10° WSW 18:20:44 53° NW 18:23:58 10° NE visible
24 Jan -1.1 19:04:44 10° WNW 19:06:12 12° NNW 19:07:38 10° N visible
